weather.gov     
National Weather Service

Terminal Aerodrome Forecast
NWS Homepage
This page is being discontinued on March 12, 2014.
The same data is available at this site. Please update your bookmarks.
Thank you, and we apologize for the inconvenience.
Please send an email to SR-SRH.Webmaster@noaa.gov with any concerns.


Current Version
Previous Version:    01  02  03  04  05  06  07  08  09  10  11  12  13  14  
[Printable]
321
FTUS41 KBOX 292007 AAA
TAFMHT
TAF AMD
KMHT 292007Z 2920/3018 VRB03KT P6SM SCT050
     FM292300 13004KT P6SM SCT200
     FM301300 19004KT P6SM SCT110=




321
FTUS41 KBOX 292007 AAA
TAFMHT
TAF AMD
KMHT 292007Z 2920/3018 VRB03KT P6SM SCT050
     FM292300 13004KT P6SM SCT200
     FM301300 19004KT P6SM SCT110=


U.S. Dept. of Commerce
NOAA National Weather Service
1325 East West Highway
Silver Spring, MD 20910
E-mail: w-nws.webmaster@noaa.gov
Page last modified: May 16, 2007
NATIONAL WEATHER SERVICE: for Safety, for Work, for Fun - FOR LIFE